Regional Weather Roundup
Issued by NWS

Home | Current Version | Previous Version | Graphics & Text | Print | Product List | Glossary On
Versions: 1 2 3 4 5 6 7 8 9 10 11 12 13 14 15 16 17 18 19 20 21 22 23 24 25 26 27 28 29 30 31 32 33 34 35 36 37 38 39 40 41 42 43 44 45 46 47 48 49 50
000
ASUS43 KFSD 201210
RWRSD

WEATHER ROUNDUP FOR SOUTH DAKOTA
NATIONAL WEATHER SERVICE SIOUX FALLS SD
600 AM CST SAT DEC 20 2014

NOTE: "FAIR" INDICATES FEW OR NO CLOUDS BELOW 12,000 FEET WITH NO
SIGNIFICANT WEATHER AND/OR OBSTRUCTIONS TO VISIBILITY.


SDZ001>005-009-010-012>017-201300-
NORTHWEST AND NORTH CENTRAL SOUTH DAKOTA

CITY           SKY/WX    TMP DP  RH WIND       PRES   REMARKS
BUFFALO          N/A     33  23  66 SW7       29.79F WCI  27
FAITH            N/A     27  22  81 S7        29.88F WCI  19
MOBRIDGE       PTCLDY    19  16  88 SE8       29.91S WCI   9
$$

SDZ012>016-024>037-041>051-057-063-072>074-201300-
SOUTHWEST AND SOUTH CENTRAL SOUTH DAKOTA

CITY           SKY/WX    TMP DP  RH WIND       PRES   REMARKS
RAPID CTY ARPT MOCLDY    33  22  63 NW6       29.88S WCI  28
PIERRE         HAZE      20  15  81 E6        29.95S VSB<1/4 WCI  12
CUSTER         MOCLDY    31  16  54 W5        29.88S WCI  26
ELLSWORTH AFB  CLOUDY    32  23  69 NW6       29.87S WCI  26
PHILIP         CLEAR     20  16  84 CALM      29.93S
PINE RIDGE     CLEAR     21  15  78 W7        29.92S WCI  12
SPEARFISH      CLOUDY    36  21  55 W7        29.90R
WINNER         FAIR      23  15  71 S3        29.96S
$$

SDZ004>011-016>023-039-040-201300-
NORTHEAST SOUTH DAKOTA

CITY           SKY/WX    TMP DP  RH WIND       PRES   REMARKS
ABERDEEN       FOG       27  25  92 S8        30.01R VSB 3/4 WCI  19
WATERTOWN      CLOUDY    28  26  92 S10       29.99F FOG     WCI  19
SISSETON         N/A     30  28  92 SW8       30.01F WCI  22
$$

SDZ017-020-022-023-036>040-048>070-201300-
SOUTHEAST SOUTH DAKOTA

CITY           SKY/WX    TMP DP  RH WIND       PRES   REMARKS
SIOUX FALLS    CLOUDY    31  29  92 S8        30.05S FOG     WCI  23
HURON          FOG       25  25 100 S9        30.02S VSB 1/2 WCI  15
CHAMBERLAIN    PTCLDY    11   8  90 SE6       29.99S WCI   1
MITCHELL       FOG       27  27 100 S9        30.05R VSB 1/2 WCI  18
YANKTON        CLOUDY    30  28  93 CALM      30.07R
$$

ABBREVIATIONS USED IN REMARKS
   TC - TEMPERATURE IN CELSIUS
  WCI - WIND CHILL INDEX
   HX - HEAT INDEX
  VSB - VISIBILITY



USA.gov is the U.S. government's official web portal to all federal, state and local government web resources and services.